[[{"header":{"parameterUnit":"m.s-1","parameterCategory":1,"la1":30.2991,"la2":30.254,"lo1":-89.0895,"lo2":-89.0444,"dy":0.0017,"dx":0.0017,"nx":28,"ny":28,"refTime":"2025-03-13T21:00:00:Z","depth":0,"parameterNumber":2,"parameterNumberName":"U-component_of_WINDS"},"data":[0,0,0,0,0,0,0,0,0,0,0,0,0,0,0,0,0,0,0,0,0,0,0,0,0,0,0,0,0,0,0,0,0,0,0,0,0,0,0,0,0,0,0,0,0,0,0,0,0,0,0,0,0,0,0,0,0,0,-0.1357,-0.1358,0,-0.1476,-0.1478,-0.1479,-0.1481,-0.148,-0.1478,-0.1477,-0.1594,-0.1599,-0.1603,0,0,0,0,0,0,0,0,0,0,0,0,0,-0.1124,-0.1129,-0.1357,-0.1358,-0.136,-0.1476,-0.1478,-0.1479,-0.1481,-0.1479,-0.1478,-0.1476,-0.1593,-0.1598,-0.1604,0,0,0,0,0,0,0,0,0,0,0,0,0,-0.1232,-0.113,-0.1357,-0.1375,-0.1378,-0.1476,-0.1478,-0.148,-0.1482,-0.1479,-0.1477,-0.1475,-0.1591,-0.1598,-0.1604,-0.1691,0,0,-0.1625,-0.1628,0,0,0,0,0,0,0,0,-0.1226,-0.1241,-0.1371,-0.1374,-0.1377,-0.1462,-0.1439,-0.155,-0.1482,-0.1442,-0.1477,-0.1474,-0.1552,-0.1562,-0.1589,-0.1696,-0.1701,-0.1626,-0.163,-0.1633,-0.1635,0,0,0,0,0,0,0,-0.1219,-0.1236,-0.1404,-0.1373,-0.1377,-0.1375,-0.1388,-0.146,-0.1508,-0.1445,-0.1446,-0.146,-0.1553,-0.1582,-0.1591,-0.1703,-0.1626,-0.1632,-0.1636,-0.1638,-0.1884,-0.1886,0,0,0,0,0,0,-0.1208,-0.123,-0.14,-0.1408,-0.1295,-0.1381,-0.1396,-0.1437,-0.1507,-0.1516,-0.1462,-0.146,-0.1572,-0.1584,-0.1596,-0.17,-0.1633,-0.1639,-0.1643,-0.1881,-0.1884,-0.1887,0,0,0,0,0,0,-0.1203,-0.1224,-0.1395,-0.1319,-0.1341,-0.1388,-0.1434,-0.144,-0.147,-0.152,-0.1528,-0.1484,-0.157,-0.1586,-0.1667,-0.1704,-0.1642,-0.1648,-0.1878,-0.1882,-0.1886,-0.1909,0,0,0,0,0,0,-0.1197,-0.1222,-0.1257,-0.132,-0.1345,-0.1467,-0.1436,-0.1444,-0.1482,-0.148,-0.1542,-0.155,-0.157,-0.1657,-0.1673,-0.1712,-0.1654,-0.1875,-0.188,-0.1884,-0.1905,-0.1913,-0.192,0,0,0,0,0,-0.1189,-0.1259,-0.1259,-0.1279,-0.139,-0.1469,-0.1483,-0.1506,-0.1485,-0.1519,-0.1551,-0.1548,-0.1697,-0.1665,-0.1684,-0.1725,-0.1873,-0.1879,-0.1884,-0.1902,-0.1911,-0.192,0,0,0,0,0,0,-0.1198,-0.1267,-0.1268,-0.1361,-0.1409,-0.1469,-0.1513,-0.1516,-0.157,-0.1566,-0.159,-0.1604,-0.1684,-0.1712,-0.1675,-0.181,-0.1782,-0.1792,-0.1789,-0.1799,-0.1806,-0.1797,-0.1659,0,0,0,0,0,-0.1211,-0.1272,-0.1328,-0.1404,-0.1428,-0.1466,-0.1502,-0.1515,-0.1565,-0.1585,-0.1623,-0.167,-0.1727,-0.1764,-0.182,-0.1909,-0.1921,-0.1946,-0.1953,-0.1959,-0.1967,-0.2013,-0.2024,-0.1905,-0.1905,-0.1905,0,0,-0.1239,-0.1284,-0.132,-0.1407,-0.1446,-0.1505,-0.1484,-0.1548,-0.1592,-0.1594,-0.1673,-0.1702,-0.1756,-0.184,-0.1879,-0.1867,-0.2002,-0.1966,-0.197,-0.1975,-0.202,-0.2031,-0.2041,-0.1909,-0.1908,-0.1907,0,0,-0.1319,-0.1361,-0.1428,-0.1466,-0.1525,-0.155,-0.1566,-0.1625,-0.1645,-0.1724,-0.1726,-0.1777,-0.1876,-0.1914,-0.1946,-0.2037,-0.2035,-0.2054,-0.2092,-0.2137,-0.2146,-0.2155,-0.2185,-0.2196,-0.2062,-0.2062,-0.2062,0,-0.1346,-0.1438,-0.1461,-0.1526,-0.1562,-0.1568,-0.1634,-0.167,-0.1744,-0.1768,-0.1753,-0.1875,-0.1912,-0.2004,-0.2026,-0.2052,-0.2069,-0.2047,-0.2143,-0.2152,-0.216,-0.219,-0.2201,-0.2063,-0.2063,-0.2063,-0.2063,0,-0.1466,-0.1529,-0.1576,-0.1647,-0.1689,-0.1754,-0.1785,-0.1824,-0.1833,-0.1858,-0.1936,-0.1981,-0.2044,-0.2067,-0.2076,-0.2159,-0.2149,-0.2139,-0.2111,-0.2173,-0.2201,-0.2213,-0.2066,-0.2065,-0.2065,-0.2064,0,0,-0.1559,-0.164,-0.1657,-0.1688,-0.1752,-0.18,-0.1863,-0.1926,-0.1958,-0.2008,-0.206,-0.2142,-0.2132,-0.2168,-0.2181,-0.2221,-0.2287,-0.2205,-0.2206,-0.2217,-0.2379,-0.2386,-0.2399,-0.2286,-0.2289,-0.2291,-0.2374,0,-0.1645,-0.176,-0.1781,-0.1881,-0.1937,-0.1942,-0.1996,-0.204,-0.2065,-0.2115,-0.2141,-0.2198,-0.2181,-0.2203,-0.2242,-0.2271,-0.232,-0.2265,-0.2333,-0.2335,-0.2319,-0.2414,-0.2423,-0.2499,-0.2385,-0.2387,-0.2388,0,-0.1762,-0.1815,-0.192,-0.1973,-0.1998,-0.2047,-0.2105,-0.2153,-0.2202,-0.2216,-0.2255,-0.2263,-0.2326,-0.2295,-0.2381,-0.2344,-0.2372,-0.239,-0.2394,-0.2401,-0.2365,-0.2422,-0.2525,-0.2535,-0.2406,-0.2405,-0.2403,0,-0.1817,-0.1914,-0.1988,-0.2015,-0.208,-0.2114,-0.2142,-0.2189,-0.2224,-0.2273,-0.2296,-0.2352,-0.2382,-0.2424,-0.2446,-0.2422,-0.2529,-0.2501,-0.2541,-0.2541,-0.2564,-0.2562,-0.2671,-0.2584,-0.2584,-0.2584,-0.2583,0,-0.1911,-0.1975,-0.2014,-0.206,-0.213,-0.2152,-0.222,-0.2248,-0.2288,-0.2337,-0.2344,-0.239,-0.2416,-0.2464,-0.2481,-0.2549,-0.2563,-0.2575,-0.2578,-0.2574,-0.2572,-0.2593,-0.2587,-0.2587,-0.2586,-0.2585,-0.2585,0,-0.1985,-0.2014,-0.2095,-0.2149,-0.2164,-0.2213,-0.2258,-0.2301,-0.2325,-0.2387,-0.2402,-0.2438,-0.2496,-0.2521,-0.2592,-0.2603,-0.268,-0.268,-0.2664,-0.2665,-0.2704,-0.2699,-0.2829,-0.2846,-0.2749,-0.2749,-0.275,0,-0.2043,-0.2092,-0.215,-0.2184,-0.2214,-0.2268,-0.2304,-0.2327,-0.2363,-0.242,-0.2456,-0.2513,-0.2561,-0.2652,-0.2683,-0.2736,-0.2737,-0.2779,-0.2745,-0.2738,-0.2736,-0.2733,-0.2736,-0.2785,-0.2786,-0.2787,-0.2788,0,-0.2142,-0.2153,-0.2206,-0.2262,-0.2304,-0.2349,-0.2394,-0.242,-0.2449,-0.249,-0.2549,-0.2585,-0.2657,-0.2713,-0.2768,-0.2795,-0.2795,-0.2798,-0.281,-0.2805,-0.2793,-0.2799,-0.2679,-0.2795,-0.2794,-0.2794,-0.2793,-0.2793,-0.2209,-0.2252,-0.2299,-0.2356,-0.2391,-0.2431,-0.2474,-0.2502,-0.2552,-0.2613,-0.2622,-0.2684,-0.2728,-0.2802,-0.283,-0.2877,-0.2867,-0.2885,-0.2889,-0.2893,-0.2894,-0.2786,-0.2888,-0.2887,-0.2887,-0.2887,-0.2887,0,-0.2308,-0.2337,-0.2389,-0.2451,-0.2494,-0.2492,-0.2539,-0.2576,-0.2631,-0.2672,-0.2718,-0.2784,-0.2838,-0.2872,-0.2926,-0.2957,-0.2958,-0.297,-0.2968,-0.2973,-0.2902,-0.2885,-0.2968,-0.2968,-0.2968,-0.2968,-0.2968,-0.2968,-0.2364,-0.2435,-0.2451,-0.2538,-0.2567,-0.2629,-0.2656,-0.2692,-0.2725,-0.2799,-0.2844,-0.2866,-0.2904,-0.296,-0.3008,-0.3016,-0.3035,-0.3047,-0.3055,-0.2987,-0.2979,-0.2971,-0.2955,-0.3051,-0.3052,-0.3122,-0.3123,-0.3124]},{"header":{"parameterUnit":"m.s-1","parameterCategory":1,"la1":30.2991,"la2":30.254,"lo1":-89.0895,"lo2":-89.0444,"dy":0.0017,"dx":0.0017,"nx":28,"ny":28,"refTime":"2025-03-13T21:00:00:Z","depth":0,"parameterNumber":3,"parameterNumberName":"V-component_of_WINDS"},"data":[0,0,0,0,0,0,0,0,0,0,0,0,0,0,0,0,0,0,0,0,0,0,0,0,0,0,0,0,0,0,0,0,0,0,0,0,0,0,0,0,0,0,0,0,0,0,0,0,0,0,0,0,0,0,0,0,0,0,4.3922,4.3922,0,4.3997,4.3998,4.3999,4.4034,4.4034,4.4034,4.4034,4.4104,4.4106,4.4108,0,0,0,0,0,0,0,0,0,0,0,0,0,4.3801,4.3803,4.3922,4.3922,4.3923,4.3997,4.3998,4.3999,4.4034,4.4034,4.4034,4.4034,4.4103,4.4105,4.4108,0,0,0,0,0,0,0,0,0,0,0,0,0,4.3862,4.3804,4.3921,4.395,4.3953,4.3997,4.3998,4.3999,4.4034,4.4034,4.4034,4.4034,4.4102,4.4105,4.4108,4.4127,0,0,4.4117,4.4118,0,0,0,0,0,0,0,0,4.3859,4.3867,4.3945,4.3948,4.3952,4.4006,4.3981,4.4042,4.4034,4.4003,4.4034,4.4034,4.4071,4.4076,4.409,4.413,4.4133,4.4117,4.4119,4.412,4.4121,0,0,0,0,0,0,0,4.3855,4.3864,4.3951,4.3946,4.395,4.3957,4.3965,4.3993,4.4036,4.4006,4.4008,4.4017,4.4073,4.4087,4.4092,4.4134,4.4117,4.4119,4.4121,4.4122,4.4192,4.4192,0,0,0,0,0,0,4.3847,4.386,4.3949,4.3953,4.3905,4.3959,4.3969,4.3989,4.4036,4.4043,4.4017,4.4019,4.4083,4.4089,4.4095,4.412,4.412,4.4123,4.4124,4.4192,4.4192,4.4192,0,0,0,0,0,0,4.3844,4.3854,4.3946,4.3908,4.392,4.3961,4.3983,4.399,4.4005,4.4045,4.4052,4.4025,4.4083,4.4091,4.4119,4.4123,4.4124,4.4126,4.4192,4.4192,4.4192,4.417,0,0,0,0,0,0,4.384,4.3853,4.3862,4.3908,4.3922,4.3971,4.3983,4.3992,4.4011,4.4013,4.4054,4.406,4.4083,4.4114,4.4122,4.4127,4.4129,4.4192,4.4192,4.4192,4.4171,4.417,4.4169,0,0,0,0,0,4.3836,4.3851,4.3863,4.3873,4.3934,4.3971,4.3979,4.4007,4.4011,4.4019,4.4045,4.4059,4.4121,4.4117,4.4125,4.4132,4.4191,4.4192,4.4192,4.4171,4.417,4.4169,0,0,0,0,0,0,4.3803,4.3858,4.3871,4.3902,4.3932,4.3977,4.3988,4.4004,4.4032,4.4033,4.4064,4.4073,4.4098,4.4118,4.4112,4.4152,4.4157,4.4159,4.4139,4.4138,4.4137,4.4132,4.4131,0,0,0,0,0,4.38,4.3827,4.3873,4.3895,4.391,4.3946,4.3963,4.3983,4.4014,4.4026,4.4054,4.4081,4.4107,4.4123,4.4149,4.4173,4.4182,4.4182,4.418,4.4179,4.4181,4.4195,4.4195,4.4193,4.4193,4.4193,0,0,4.3792,4.3826,4.3841,4.389,4.3915,4.3941,4.3957,4.3983,4.4002,4.4029,4.4059,4.4079,4.4112,4.4139,4.4151,4.4155,4.4183,4.418,4.4179,4.4181,4.4195,4.4196,4.4196,4.4194,4.4193,4.4193,0,0,4.3793,4.3821,4.3844,4.3869,4.3908,4.3933,4.3938,4.3981,4.3996,4.4027,4.4048,4.4069,4.4113,4.4136,4.4153,4.4162,4.4176,4.4169,4.4164,4.4177,4.4177,4.4178,4.4181,4.4182,4.417,4.417,4.417,0,4.3778,4.382,4.3852,4.3878,4.3899,4.3927,4.3949,4.3971,4.4016,4.4028,4.4032,4.4089,4.4112,4.4145,4.4147,4.416,4.4166,4.4165,4.4175,4.4176,4.4177,4.418,4.4181,4.4169,4.4169,4.4169,4.417,0,4.38,4.3829,4.3842,4.3887,4.3909,4.3932,4.3966,4.3984,4.4001,4.4024,4.4054,4.4084,4.4117,4.4125,4.4141,4.416,4.4161,4.417,4.4176,4.4175,4.4179,4.4181,4.4168,4.4168,4.4168,4.4169,0,0,4.3782,4.3846,4.385,4.3871,4.3916,4.3938,4.3961,4.3996,4.401,4.404,4.406,4.4097,4.4105,4.4125,4.4143,4.4155,4.4161,4.4163,4.4164,4.4161,4.4182,4.4176,4.4177,4.417,4.417,4.4171,4.418,0,4.3789,4.3837,4.3866,4.3901,4.3927,4.3954,4.3975,4.4004,4.4026,4.4049,4.4072,4.4099,4.4108,4.412,4.4133,4.4157,4.4165,4.4157,4.4188,4.4189,4.418,4.4179,4.4172,4.418,4.4181,4.4182,4.4182,0,4.3803,4.3835,4.3873,4.3916,4.3928,4.3947,4.3981,4.4004,4.4036,4.4051,4.4073,4.4092,4.4117,4.4121,4.4155,4.4148,4.4162,4.4176,4.4177,4.4181,4.4185,4.4183,4.4183,4.4184,4.4184,4.4184,4.4184,0,4.3787,4.3838,4.3868,4.3885,4.3936,4.3948,4.3969,4.4002,4.4021,4.4049,4.4062,4.4092,4.4108,4.413,4.4156,4.4157,4.4187,4.4193,4.4199,4.4198,4.4204,4.4204,4.4206,4.4213,4.4213,4.4213,4.4213,0,4.3792,4.3814,4.3862,4.388,4.3905,4.3938,4.3961,4.3984,4.4013,4.4035,4.4058,4.4078,4.4111,4.4134,4.4154,4.4179,4.4185,4.4197,4.4202,4.4196,4.4194,4.4206,4.4206,4.4213,4.4213,4.4213,4.4213,0,4.3778,4.3811,4.3845,4.3891,4.3903,4.3919,4.3957,4.3975,4.3998,4.4025,4.4033,4.4069,4.4097,4.4126,4.4163,4.4176,4.42,4.4207,4.419,4.4193,4.4198,4.4197,4.4208,4.4211,4.4215,4.4215,4.4215,0,4.3779,4.3797,4.3846,4.3863,4.3885,4.3912,4.3932,4.3964,4.3983,4.4022,4.4035,4.4065,4.4091,4.4135,4.4163,4.4191,4.4199,4.4201,4.4203,4.4196,4.4199,4.4198,4.42,4.42,4.4199,4.4199,4.4199,0,4.3778,4.3794,4.3823,4.3858,4.3882,4.391,4.3939,4.3951,4.3989,4.4009,4.4039,4.406,4.4099,4.4128,4.416,4.4179,4.4195,4.4198,4.4201,4.4195,4.4184,4.419,4.4188,4.4198,4.4198,4.4198,4.4198,4.4198,4.3772,4.379,4.3827,4.3859,4.3884,4.3911,4.393,4.3957,4.3984,4.402,4.4036,4.4067,4.4098,4.4143,4.4162,4.4184,4.4189,4.4193,4.4194,4.4194,4.4193,4.418,4.419,4.419,4.419,4.419,4.419,0,4.3773,4.3798,4.3827,4.3868,4.3893,4.3908,4.394,4.3959,4.3987,4.4016,4.4042,4.4076,4.4105,4.4135,4.4166,4.4178,4.4186,4.4185,4.4184,4.4188,4.4187,4.4182,4.4178,4.4178,4.4178,4.4178,4.4178,4.4178,4.3776,4.3807,4.3827,4.387,4.3895,4.3927,4.3944,4.3968,4.3992,4.403,4.4055,4.4076,4.4105,4.4138,4.4164,4.4172,4.4182,4.4179,4.4189,4.4188,4.4188,4.4189,4.4185,4.4181,4.4181,4.4188,4.4188,4.4188]}]]